Medford, OR

2:44 PM PDT on July 20, 2017 (GMT -0700)
Rogue Valley International-Medford

Weather History for KMFR - May, 2013

Change the Weather History Date:

Thursday, May 30, 2013

  Actual Average Record
Temperature  
Mean Temperature 61 °F 63 °F  
Max Temperature 72 °F 77 °F 103 °F (1986)
Min Temperature 49 °F 49 °F 34 °F (1979)
Degree Days  
Heating Degree Days 4 4  
Month to date heating degree days 128 193  
Since 1 July heating degree days 3999 4192  
Cooling Degree Days 0 2  
Month to date cooling degree days 33 36  
Year to date cooling degree days 35 39  
Growing Degree Days 10 (Base 50)    
Moisture  
Dew Point 38 °F    
Average Humidity 53    
Maximum Humidity 80    
Minimum Humidity 25    
Precipitation  
Precipitation 0.00 in 0.04 in 0.74 in (1993)
Month to date precipitation 0.69 1.27  
Year to date precipitation 3.74 8.80  
Snow  
Snow 0.00 in 0.00 in - ()
Month to date snowfall 0.0 0.0  
Since 1 July snowfall 1.7 4.1  
Snow Depth 0.00 in    
Sea Level Pressure  
Sea Level Pressure 30.11 in    
Wind  
Wind Speed 5 mph (NNW)    
Max Wind Speed 17 mph    
Max Gust Speed 25 mph    
Visibility 10 miles    
Events      
T = Trace of Precipitation, MM = Missing Value Source: NWS Daily Summary

Daily Weather History Graph

Daily Weather History Graph

Search for Another Location

Airport or City:

Trip Planner

Search our weather history database for the weather conditions in past years. The results will help you decide how hot, cold, wet, or windy it might be!

Date:

Astronomy

May. 30, 2013 Rise Set
Actual Time 5:38 AM PDT 8:40 PM PDT
Civil Twilight 5:04 AM PDT 9:14 PM PDT
Nautical Twilight 4:21 AM PDT 9:57 PM PDT
Astronomical Twilight 3:30 AM PDT 10:48 PM PDT
Moon 12:40 AM PDT (5/30) 11:57 AM PDT (5/30)
Length of Visible Light 16h 10m
Length of Day
15h 02m
Waning Gibbous, 61% of the Moon is Illuminated
May 30
Waning Gibbous
May 31
Last Quarter
Jun 8
New
Jun 16
First Quarter
Jun 23
Full

Hourly Weather History & Observations

Time (PDT) Temp. Dew Point Humidity Pressure Visibility Wind Dir Wind Speed Gust Speed Precip Events Conditions
12:53 AM 52.0 °F 39.0 °F 61% 30.07 in 10.0 mi North 3.5 mph - N/A   Partly Cloudy
1:53 AM 50.0 °F 41.0 °F 71% 30.08 in 10.0 mi North 3.5 mph - N/A   Scattered Clouds
2:53 AM 50.0 °F 39.9 °F 68% 30.08 in 10.0 mi Calm Calm - N/A   Overcast
3:53 AM 48.9 °F 42.1 °F 77% 30.09 in 10.0 mi ENE 3.5 mph - N/A   Overcast
4:53 AM 48.9 °F 41.0 °F 74% 30.09 in 10.0 mi Calm Calm - N/A   Overcast
5:53 AM 50.0 °F 39.9 °F 68% 30.10 in 10.0 mi North 3.5 mph - N/A   Overcast
6:53 AM 50.0 °F 39.9 °F 68% 30.12 in 10.0 mi NW 4.6 mph - N/A   Overcast
7:53 AM 51.1 °F 39.9 °F 66% 30.13 in 10.0 mi NW 5.8 mph - N/A   Overcast
8:53 AM 54.0 °F 39.0 °F 57% 30.13 in 10.0 mi Calm Calm - N/A   Mostly Cloudy
9:53 AM 55.9 °F 37.0 °F 49% 30.14 in 10.0 mi Variable 3.5 mph - N/A   Mostly Cloudy
10:53 AM 60.1 °F 36.0 °F 41% 30.13 in 10.0 mi ENE 4.6 mph - N/A   Scattered Clouds
11:53 AM 60.1 °F 36.0 °F 41% 30.12 in 10.0 mi Variable 3.5 mph - N/A   Scattered Clouds
12:53 PM 63.0 °F 36.0 °F 37% 30.11 in 10.0 mi Variable 3.5 mph - N/A   Partly Cloudy
1:53 PM 66.0 °F 35.1 °F 32% 30.09 in 10.0 mi Variable 5.8 mph - N/A   Partly Cloudy
2:53 PM 69.1 °F 35.1 °F 29% 30.09 in 10.0 mi Variable 6.9 mph 20.7 mph N/A   Partly Cloudy
3:53 PM 69.1 °F 34.0 °F 27% 30.08 in 10.0 mi West 10.4 mph - N/A   Partly Cloudy
4:53 PM 71.1 °F 33.1 °F 25% 30.07 in 10.0 mi West 8.1 mph - N/A   Partly Cloudy
5:53 PM 71.1 °F 35.1 °F 27% 30.07 in 10.0 mi NW 9.2 mph - N/A   Clear
6:53 PM 68.0 °F 39.0 °F 35% 30.09 in 10.0 mi North 16.1 mph 21.9 mph N/A   Clear
7:53 PM 64.0 °F 37.9 °F 38% 30.12 in 10.0 mi North 15.0 mph - N/A   Clear
8:53 PM 60.1 °F 39.0 °F 46% 30.15 in 10.0 mi North 5.8 mph - N/A   Clear
9:53 PM 57.9 °F 39.0 °F 49% 30.18 in 10.0 mi NNW 3.5 mph - N/A   Clear
10:53 PM 54.0 °F 39.0 °F 57% 30.20 in 10.0 mi NNW 3.5 mph - N/A   Clear
11:53 PM 53.1 °F 39.0 °F 59% 30.21 in 10.0 mi Calm Calm - N/A   Clear